Time,TemperatureF,DewpointF,PressureIn,WindDirection,WindDirectionDegrees,WindSpeedMPH,WindSpeedGustMPH,Humidity,HourlyPrecipIn,Conditions,Clouds,dailyrainin,SoftwareType,DateUTC
2013-04-19 00:02:00,22.0,18.0,-100.00,East,95,4.0,4.0,84,-99.99,,,-99.99,,2013-04-19 08:02:00,
2013-04-19 00:12:00,22.0,18.0,-100.00,East,95,4.0,4.0,84,-99.99,,,-99.99,,2013-04-19 08:12:00,
2013-04-19 00:42:00,21.0,18.0,-100.00,East,95,4.0,6.0,87,-99.99,,,-99.99,,2013-04-19 08:42:00,
2013-04-19 00:52:00,20.0,17.0,-100.00,East,95,4.0,7.0,89,-99.99,,,-99.99,,2013-04-19 08:52:00,
2013-04-19 01:01:00,20.0,17.0,-100.00,East,95,4.0,7.0,89,-99.99,,,-99.99,,2013-04-19 09:01:00,
2013-04-19 01:11:00,20.0,17.0,-100.00,East,95,4.0,7.0,89,-99.99,,,-99.99,,2013-04-19 09:11:00,
2013-04-19 01:52:00,18.0,16.0,-100.00,ESE,110,3.0,8.0,91,-99.99,,,-99.99,,2013-04-19 09:52:00,
2013-04-19 03:21:00,15.0,14.0,-100.00,East,90,6.0,7.0,94,-99.99,,,-99.99,,2013-04-19 11:21:00,
2013-04-19 03:52:00,14.0,13.0,-100.00,North,-999,-999.0,-999.0,95,-99.99,,,-99.99,,2013-04-19 11:52:00,
2013-04-19 04:52:00,13.0,11.0,-100.00,East,95,4.0,7.0,96,-99.99,,,-99.99,,2013-04-19 12:52:00,
2013-04-19 06:52:00,10.0,9.0,-100.00,East,100,6.0,7.0,97,-99.99,,,-99.99,,2013-04-19 14:52:00,
2013-04-19 07:52:00,10.0,9.0,-100.00,East,100,4.0,7.0,97,-99.99,,,-99.99,,2013-04-19 15:52:00,
2013-04-19 08:52:00,16.0,14.0,-100.00,ESE,110,2.0,4.0,92,-99.99,,,-99.99,,2013-04-19 16:52:00,
2013-04-19 09:02:00,16.0,14.0,-100.00,ESE,110,2.0,4.0,92,-99.99,,,-99.99,,2013-04-19 17:02:00,
2013-04-19 09:21:00,26.0,20.0,-100.00,NE,35,2.0,10.0,78,-99.99,,,-99.99,,2013-04-19 17:21:00,
2013-04-19 09:32:00,26.0,20.0,-100.00,NE,35,2.0,10.0,78,-99.99,,,-99.99,,2013-04-19 17:32:00,
2013-04-19 09:43:00,26.0,20.0,-100.00,NE,35,2.0,10.0,78,-99.99,,,-99.99,,2013-04-19 17:43:00,
2013-04-19 09:52:00,32.0,18.0,-100.00,NNE,20,4.0,13.0,58,-99.99,,,-99.99,,2013-04-19 17:52:00,
2013-04-19 10:01:00,32.0,18.0,-100.00,NNE,20,4.0,13.0,58,-99.99,,,-99.99,,2013-04-19 18:01:00,
2013-04-19 10:13:00,32.0,18.0,-100.00,NNE,20,4.0,13.0,58,-99.99,,,-99.99,,2013-04-19 18:13:00,
2013-04-19 10:22:00,33.0,16.0,-100.00,NNE,15,7.0,12.0,50,-99.99,,,-99.99,,2013-04-19 18:22:00,
2013-04-19 10:32:00,33.0,16.0,-100.00,NNE,15,7.0,12.0,50,-99.99,,,-99.99,,2013-04-19 18:32:00,
2013-04-19 10:43:00,33.0,16.0,-100.00,NNE,15,7.0,12.0,50,-99.99,,,-99.99,,2013-04-19 18:43:00,
2013-04-19 10:52:00,34.0,17.0,-100.00,North,0,4.0,12.0,49,-99.99,,,-99.99,,2013-04-19 18:52:00,
2013-04-19 11:01:00,34.0,17.0,-100.00,North,0,4.0,12.0,49,-99.99,,,-99.99,,2013-04-19 19:01:00,
2013-04-19 11:11:00,34.0,17.0,-100.00,North,0,4.0,12.0,49,-99.99,,,-99.99,,2013-04-19 19:11:00,
2013-04-19 11:21:00,33.0,19.0,-100.00,North,350,5.0,12.0,55,-99.99,,,-99.99,,2013-04-19 19:21:00,
2013-04-19 11:31:00,33.0,19.0,-100.00,North,350,5.0,12.0,55,-99.99,,,-99.99,,2013-04-19 19:31:00,
2013-04-19 11:42:00,33.0,19.0,-100.00,North,350,5.0,12.0,55,-99.99,,,-99.99,,2013-04-19 19:42:00,
2013-04-19 11:52:00,34.0,20.0,-100.00,North,0,6.0,11.0,56,-99.99,,,-99.99,,2013-04-19 19:52:00,
2013-04-19 12:01:00,34.0,20.0,-100.00,North,0,6.0,11.0,56,-99.99,,,-99.99,,2013-04-19 20:01:00,
2013-04-19 12:11:00,34.0,20.0,-100.00,North,0,6.0,11.0,56,-99.99,,,-99.99,,2013-04-19 20:11:00,
2013-04-19 12:22:00,35.0,20.0,-100.00,NNW,335,7.0,15.0,54,-99.99,,,-99.99,,2013-04-19 20:22:00,
2013-04-19 12:31:00,35.0,20.0,-100.00,NNW,335,7.0,15.0,54,-99.99,,,-99.99,,2013-04-19 20:31:00,
2013-04-19 12:42:00,35.0,20.0,-100.00,NNW,335,7.0,15.0,54,-99.99,,,-99.99,,2013-04-19 20:42:00,
2013-04-19 12:52:00,35.0,20.0,-100.00,NW,310,7.0,12.0,54,-99.99,,,-99.99,,2013-04-19 20:52:00,
2013-04-19 13:01:00,35.0,20.0,-100.00,NW,310,7.0,12.0,54,-99.99,,,-99.99,,2013-04-19 21:01:00,
2013-04-19 13:11:00,35.0,20.0,-100.00,NW,310,7.0,12.0,54,-99.99,,,-99.99,,2013-04-19 21:11:00,
2013-04-19 13:21:00,35.0,20.0,-100.00,NW,320,4.0,14.0,54,-99.99,,,-99.99,,2013-04-19 21:21:00,
2013-04-19 13:32:00,35.0,20.0,-100.00,NW,320,4.0,14.0,54,-99.99,,,-99.99,,2013-04-19 21:32:00,
2013-04-19 13:43:00,35.0,20.0,-100.00,NW,320,4.0,14.0,54,-99.99,,,-99.99,,2013-04-19 21:43:00,
2013-04-19 13:52:00,35.0,20.0,-100.00,NW,325,8.0,15.0,54,-99.99,,,-99.99,,2013-04-19 21:52:00,
2013-04-19 14:02:00,35.0,20.0,-100.00,NW,325,8.0,15.0,54,-99.99,,,-99.99,,2013-04-19 22:02:00,
2013-04-19 14:12:00,35.0,20.0,-100.00,NW,325,8.0,15.0,54,-99.99,,,-99.99,,2013-04-19 22:12:00,
2013-04-19 14:22:00,35.0,21.0,-100.00,NW,320,8.0,14.0,56,-99.99,,,-99.99,,2013-04-19 22:22:00,
2013-04-19 14:33:00,35.0,21.0,-100.00,NW,320,8.0,14.0,56,-99.99,,,-99.99,,2013-04-19 22:33:00,
2013-04-19 14:42:00,35.0,21.0,-100.00,NW,320,8.0,14.0,56,-99.99,,,-99.99,,2013-04-19 22:42:00,
2013-04-19 14:52:00,37.0,21.0,-100.00,NW,325,6.0,12.0,53,-99.99,,,-99.99,,2013-04-19 22:52:00,
2013-04-19 15:02:00,37.0,21.0,-100.00,NW,325,6.0,12.0,53,-99.99,,,-99.99,,2013-04-19 23:02:00,
2013-04-19 15:11:00,37.0,21.0,-100.00,NW,325,6.0,12.0,53,-99.99,,,-99.99,,2013-04-19 23:11:00,
2013-04-19 15:22:00,38.0,23.0,-100.00,NW,325,6.0,12.0,54,-99.99,,,-99.99,,2013-04-19 23:22:00,
2013-04-19 15:31:00,38.0,23.0,-100.00,NW,325,6.0,12.0,54,-99.99,,,-99.99,,2013-04-19 23:31:00,
2013-04-19 15:42:00,38.0,23.0,-100.00,NW,325,6.0,12.0,54,-99.99,,,-99.99,,2013-04-19 23:42:00,
2013-04-19 15:52:00,37.0,25.0,-100.00,NW,320,7.0,14.0,60,-99.99,,,-99.99,,2013-04-19 23:52:00,
2013-04-19 16:01:00,37.0,25.0,-100.00,NW,320,7.0,14.0,60,-99.99,,,-99.99,,2013-04-20 00:01:00,
2013-04-19 16:12:00,37.0,25.0,-100.00,NW,320,7.0,14.0,60,-99.99,,,-99.99,,2013-04-20 00:12:00,
2013-04-19 16:21:00,37.0,24.0,-100.00,NNW,330,7.0,12.0,60,-99.99,,,-99.99,,2013-04-20 00:21:00,
2013-04-19 16:31:00,37.0,24.0,-100.00,NNW,330,7.0,12.0,60,-99.99,,,-99.99,,2013-04-20 00:31:00,
2013-04-19 16:42:00,37.0,24.0,-100.00,NNW,330,7.0,12.0,60,-99.99,,,-99.99,,2013-04-20 00:42:00,
2013-04-19 16:52:00,38.0,24.0,-100.00,North,355,5.0,12.0,56,-99.99,,,-99.99,,2013-04-20 00:52:00,
2013-04-19 17:01:00,38.0,24.0,-100.00,North,355,5.0,12.0,56,-99.99,,,-99.99,,2013-04-20 01:01:00,
2013-04-19 17:11:00,38.0,24.0,-100.00,North,355,5.0,12.0,56,-99.99,,,-99.99,,2013-04-20 01:11:00,
2013-04-19 17:21:00,38.0,24.0,-100.00,NNW,335,5.0,9.0,57,-99.99,,,-99.99,,2013-04-20 01:21:00,
2013-04-19 17:32:00,38.0,24.0,-100.00,NNW,335,5.0,9.0,57,-99.99,,,-99.99,,2013-04-20 01:32:00,
2013-04-19 17:42:00,38.0,24.0,-100.00,NNW,335,5.0,9.0,57,-99.99,,,-99.99,,2013-04-20 01:42:00,
2013-04-19 17:52:00,39.0,23.0,-100.00,NNW,340,6.0,9.0,52,-99.99,,,-99.99,,2013-04-20 01:52:00,
2013-04-19 18:01:00,39.0,23.0,-100.00,NNW,340,6.0,9.0,52,-99.99,,,-99.99,,2013-04-20 02:01:00,
2013-04-19 18:11:00,39.0,23.0,-100.00,NNW,340,6.0,9.0,52,-99.99,,,-99.99,,2013-04-20 02:11:00,
2013-04-19 18:21:00,39.0,24.0,-100.00,WNW,300,4.0,8.0,54,-99.99,,,-99.99,,2013-04-20 02:21:00,
2013-04-19 18:32:00,39.0,24.0,-100.00,WNW,300,4.0,8.0,54,-99.99,,,-99.99,,2013-04-20 02:32:00,
2013-04-19 18:42:00,39.0,24.0,-100.00,WNW,300,4.0,8.0,54,-99.99,,,-99.99,,2013-04-20 02:42:00,
2013-04-19 18:52:00,37.0,25.0,-100.00,NW,320,4.0,9.0,60,-99.99,,,-99.99,,2013-04-20 02:52:00,
2013-04-19 19:01:00,37.0,25.0,-100.00,NW,320,4.0,9.0,60,-99.99,,,-99.99,,2013-04-20 03:01:00,
2013-04-19 19:11:00,37.0,25.0,-100.00,NW,320,4.0,9.0,60,-99.99,,,-99.99,,2013-04-20 03:11:00,
2013-04-19 19:21:00,39.0,24.0,-100.00,NW,310,3.0,6.0,56,-99.99,,,-99.99,,2013-04-20 03:21:00,
2013-04-19 19:33:00,39.0,24.0,-100.00,NW,310,3.0,6.0,56,-99.99,,,-99.99,,2013-04-20 03:33:00,
2013-04-19 19:43:00,39.0,24.0,-100.00,NW,310,3.0,6.0,56,-99.99,,,-99.99,,2013-04-20 03:43:00,
2013-04-19 19:53:00,39.0,24.0,-100.00,West,280,3.0,6.0,55,-99.99,,,-99.99,,2013-04-20 03:53:00,
2013-04-19 20:02:00,39.0,24.0,-100.00,West,280,3.0,6.0,55,-99.99,,,-99.99,,2013-04-20 04:02:00,
2013-04-19 20:12:00,39.0,24.0,-100.00,West,280,3.0,6.0,55,-99.99,,,-99.99,,2013-04-20 04:12:00,
2013-04-19 20:23:00,39.0,24.0,-100.00,WNW,285,1.0,3.0,54,-99.99,,,-99.99,,2013-04-20 04:23:00,
2013-04-19 20:32:00,39.0,24.0,-100.00,WNW,285,1.0,3.0,54,-99.99,,,-99.99,,2013-04-20 04:32:00,
2013-04-19 20:42:00,39.0,24.0,-100.00,WNW,285,1.0,3.0,54,-99.99,,,-99.99,,2013-04-20 04:42:00,
2013-04-19 20:52:00,40.0,21.0,-100.00,NNE,25,0.0,4.0,47,-99.99,,,-99.99,,2013-04-20 04:52:00,
2013-04-19 21:01:00,40.0,21.0,-100.00,NNE,25,0.0,4.0,47,-99.99,,,-99.99,,2013-04-20 05:01:00,
2013-04-19 21:12:00,40.0,21.0,-100.00,NNE,25,0.0,4.0,47,-99.99,,,-99.99,,2013-04-20 05:12:00,
2013-04-19 21:21:00,38.0,20.0,-100.00,ESE,115,1.0,3.0,48,-99.99,,,-99.99,,2013-04-20 05:21:00,
2013-04-19 21:32:00,38.0,20.0,-100.00,ESE,115,1.0,3.0,48,-99.99,,,-99.99,,2013-04-20 05:32:00,
2013-04-19 21:43:00,38.0,20.0,-100.00,ESE,115,1.0,3.0,48,-99.99,,,-99.99,,2013-04-20 05:43:00,
2013-04-19 21:52:00,32.0,20.0,-100.00,East,95,2.0,2.0,60,-99.99,,,-99.99,,2013-04-20 05:52:00,
2013-04-19 22:01:00,32.0,20.0,-100.00,East,95,2.0,2.0,60,-99.99,,,-99.99,,2013-04-20 06:01:00,
2013-04-19 22:12:00,32.0,20.0,-100.00,East,95,2.0,2.0,60,-99.99,,,-99.99,,2013-04-20 06:12:00,
2013-04-19 22:21:00,28.0,19.0,-100.00,East,95,3.0,4.0,69,-99.99,,,-99.99,,2013-04-20 06:21:00,
2013-04-19 22:31:00,28.0,19.0,-100.00,East,95,3.0,4.0,69,-99.99,,,-99.99,,2013-04-20 06:31:00,
2013-04-19 22:42:00,28.0,19.0,-100.00,East,95,3.0,4.0,69,-99.99,,,-99.99,,2013-04-20 06:42:00,
2013-04-19 22:52:00,27.0,19.0,-100.00,East,100,4.0,4.0,72,-99.99,,,-99.99,,2013-04-20 06:52:00,
2013-04-19 23:01:00,27.0,19.0,-100.00,East,100,4.0,4.0,72,-99.99,,,-99.99,,2013-04-20 07:01:00,
2013-04-19 23:11:00,27.0,19.0,-100.00,East,100,4.0,4.0,72,-99.99,,,-99.99,,2013-04-20 07:11:00,
2013-04-19 23:21:00,25.0,18.0,-100.00,East,100,4.0,4.0,78,-99.99,,,-99.99,,2013-04-20 07:21:00,
2013-04-19 23:32:00,25.0,18.0,-100.00,East,100,4.0,4.0,78,-99.99,,,-99.99,,2013-04-20 07:32:00,
2013-04-19 23:42:00,25.0,18.0,-100.00,East,100,4.0,4.0,78,-99.99,,,-99.99,,2013-04-20 07:42:00,
2013-04-19 23:52:00,24.0,19.0,-100.00,East,95,4.0,6.0,79,-99.99,,,-99.99,,2013-04-20 07:52:00,